Temp
-32 -33 -34 -34 -34 -35 -35 -36 -36 -36 -36 -36 -36 -37 -37 -38 -38 -38 -38 -39 -39 -39 -39 -39 -39 -40 -40 -40 -40 -40 -40 -40 -40 -40 -40 -40 -40 -40 -40 -39 -39 -38 -37 -37 -38 -37 -37 -36 -36 -36 -35 -35 -35 -34 -34 -33 -33 -33 -33 -33 -32 -32 -31
-33 -33 -34 -34 -35 -35 -36 -36 -36 -36 -36 -36 -36 -37 -37 -38 -38 -38 -38 -39 -39 -39 -39 -39 -39 -40 -40 -40 -40 -40 -40 -41 -41 -41 -41 -41 -40 -40 -40 -40 -39 -39 -38 -38 -38 -38 -37 -37 -37 -36 -36 -36 -36 -35 -35 -34 -34 -33 -33 -33 -33 -33 -32
-33 -34 -34 -35 -35 -36 -36 -36 -36 -36 -36 -36 -37 -37 -37 -37 -38 -38 -38 -39 -39 -39 -39 -40 -40 -40 -40 -40 -40 -41 -41 -41 -41 -41 -41 -40 -40 -40 -40 -40 -40 -39 -39 -38 -38 -38 -38 -37 -37 -37 -37 -37 -36 -36 -36 -35 -34 -34 -34 -33 -33 -33 -33
-34 -34 -35 -35 -35 -36 -36 -36 -36 -37 -37 -37 -37 -37 -37 -37 -38 -38 -38 -39 -39 -39 -39 -40 -40 -40 -40 -41 -41 -41 -41 -41 -41 -41 -41 -40 -40 -40 -40 -40 -40 -39 -39 -38 -38 -38 -37 -37 -37 -37 -37 -37 -37 -37 -36 -36 -36 -35 -34 -34 -34 -33 -33
-34 -35 -35 -35 -36 -36 -36 -37 -37 -37 -37 -37 -37 -37 -37 -37 -38 -38 -38 -38 -39 -39 -39 -40 -40 -40 -40 -41 -41 -41 -41 -41 -41 -41 -40 -40 -40 -40 -40 -40 -40 -39 -39 -39 -38 -38 -37 -37 -37 -37 -37 -37 -37 -37 -37 -36 -36 -36 -35 -35 -34 -34 -33
-34 -35 -35 -36 -36 -36 -37 -37 -37 -37 -37 -37 -37 -37 -38 -38 -38 -38 -38 -39 -39 -39 -39 -40 -40 -40 -41 -41 -41 -41 -41 -41 -41 -40 -40 -40 -40 -40 -40 -40 -40 -39 -39 -39 -38 -38 -38 -38 -38 -37 -37 -37 -37 -37 -37 -37 -37 -36 -36 -36 -35 -35 -34
-34 -35 -36 -36 -36 -37 -37 -37 -37 -37 -38 -38 -38 -38 -38 -38 -38 -38 -39 -39 -39 -39 -40 -40 -40 -41 -41 -41 -41 -41 -41 -41 -40 -40 -40 -40 -40 -40 -40 -40 -40 -39 -39 -39 -39 -38 -38 -38 -38 -38 -38 -38 -38 -37 -37 -37 -37 -37 -36 -36 -36 -35 -35
-35 -35 -36 -36 -36 -37 -37 -37 -38 -38 -38 -38 -38 -38 -38 -38 -38 -38 -39 -39 -39 -40 -40 -40 -41 -41 -41 -41 -41 -41 -41 -41 -40 -40 -40 -40 -40 -40 -40 -40 -40 -40 -39 -39 -39 -39 -38 -38 -38 -38 -38 -38 -38 -37 -37 -37 -37 -37 -37 -37 -36 -36 -35
-35 -36 -36 -36 -37 -37 -37 -38 -38 -38 -38 -38 -38 -38 -38 -38 -38 -39 -39 -39 -39 -40 -40 -40 -41 -41 -41 -41 -41 -41 -41 -40 -40 -40 -40 -40 -40 -40 -40 -40 -40 -40 -40 -40 -39 -39 -39 -39 -39 -39 -38 -38 -38 -38 -38 -38 -37 -37 -37 -37 -37 -36 -36
-36 -36 -36 -37 -37 -37 -38 -38 -38 -38 -38 -38 -38 -38 -38 -38 -38 -39 -39 -39 -40 -40 -40 -41 -41 -41 -41 -41 -41 -41 -41 -40 -41 -41 -41 -40 -40 -40 -40 -40 -40 -40 -40 -40 -40 -40 -40 -40 -39 -39 -39 -39 -39 -39 -38 -38 -38 -37 -37 -37 -37 -36 -36
-36 -36 -37 -37 -37 -38 -38 -38 -38 -38 -38 -39 -39 -38 -38 -38 -38 -39 -39 -39 -40 -40 -40 -41 -41 -41 -41 -41 -41 -41 -41 -41 -41 -41 -41 -41 -41 -41 -41 -41 -41 -41 -41 -41 -41 -40 -40 -40 -40 -40 -40 -40 -40 -39 -39 -39 -38 -38 -37 -37 -36 -36 -36
-36 -37 -37 -37 -37 -38 -38 -38 -38 -39 -39 -39 -39 -39 -38 -38 -38 -38 -39 -39 -40 -40 -40 -40 -40 -40 -40 -40 -40 -41 -41 -41 -41 -41 -41 -41 -41 -41 -41 -41 -41 -41 -41 -41 -41 -41 -41 -41 -41 -41 -41 -41 -41 -41 -40 -40 -39 -38 -38 -38 -37 -36 -36
-37 -37 -37 -37 -38 -38 -38 -39 -39 -39 -39 -39 -39 -39 -39 -38 -38 -38 -39 -39 -40 -40 -40 -40 -40 -40 -40 -40 -40 -41 -41 -41 -41 -41 -41 -41 -41 -41 -41 -42 -42 -42 -42 -42 -42 -41 -42 -42 -42 -42 -42 -43 -42 -41 -41 -41 -41 -40 -40 -39 -38 -37 -36
-37 -37 -38 -38 -38 -38 -39 -39 -39 -39 -39 -39 -39 -39 -39 -39 -38 -39 -39 -39 -39 -40 -40 -40 -40 -40 -40 -40 -41 -41 -41 -41 -41 -41 -41 -41 -41 -41 -42 -42 -42 -43 -43 -43 -42 -42 -41 -42 -43 -43 -43 -44 -43 -42 -42 -42 -42 -42 -41 -40 -39 -38 -37
-37 -38 -38 -38 -38 -39 -39 -39 -39 -39 -39 -39 -39 -39 -39 -39 -39 -39 -39 -39 -40 -40 -40 -40 -40 -40 -40 -40 -41 -41 -41 -41 -41 -41 -41 -41 -41 -42 -42 -42 -43 -43 -44 -44 -43 -43 -42 -42 -43 -43 -43 -44 -44 -44 -43 -43 -43 -42 -42 -41 -40 -39 -38
-38 -38 -38 -39 -39 -39 -39 -39 -39 -39 -39 -39 -39 -39 -39 -39 -39 -39 -39 -39 -40 -40 -40 -40 -40 -40 -40 -41 -41 -41 -41 -41 -41 -41 -41 -41 -41 -41 -42 -42 -43 -44 -44 -43 -43 -43 -43 -43 -43 -43 -43 -43 -44 -44 -44 -44 -43 -43 -43 -42 -42 -41 -40
-38 -39 -39 -39 -39 -39 -39 -40 -40 -39 -39 -39 -40 -40 -39 -39 -39 -39 -39 -40 -40 -40 -40 -40 -40 -40 -40 -41 -41 -41 -41 -41 -41 -41 -41 -41 -41 -41 -41 -42 -44 -44 -44 -44 -44 -43 -44 -43 -43 -43 -43 -43 -43 -44 -44 -44 -43 -43 -43 -43 -42 -42 -41
-38 -39 -39 -39 -40 -40 -40 -40 -40 -39 -39 -40 -40 -40 -39 -39 -39 -39 -40 -40 -40 -40 -40 -40 -41 -41 -40 -41 -41 -41 -41 -41 -41 -41 -41 -41 -41 -41 -41 -43 -43 -44 -44 -44 -44 -44 -44 -44 -43 -43 -43 -43 -44 -44 -44 -44 -43 -44 -44 -43 -42 -42 -41
-39 -39 -40 -40 -40 -40 -40 -40 -40 -40 -39 -40 -40 -40 -40 -39 -39 -39 -40 -40 -40 -40 -40 -40 -41 -41 -41 -41 -41 -41 -41 -41 -42 -41 -41 -41 -41 -41 -41 -42 -43 -43 -43 -44 -45 -44 -44 -44 -44 -44 -43 -44 -44 -44 -45 -44 -44 -44 -44 -43 -43 -43 -42
-39 -39 -40 -40 -40 -40 -40 -40 -40 -40 -40 -40 -40 -40 -40 -39 -39 -39 -40 -40 -40 -40 -40 -40 -41 -41 -41 -41 -41 -41 -41 -42 -42 -42 -41 -41 -41 -41 -41 -42 -42 -43 -44 -44 -44 -44 -44 -44 -44 -44 -44 -44 -44 -44 -45 -45 -45 -44 -44 -44 -43 -43 -43
-39 -39 -40 -41 -41 -41 -40 -40 -40 -40 -40 -40 -40 -40 -40 -39 -39 -39 -39 -39 -40 -40 -40 -40 -40 -41 -41 -41 -41 -41 -42 -42 -42 -42 -42 -42 -41 -41 -41 -41 -42 -43 -43 -44 -44 -44 -44 -44 -44 -44 -44 -44 -44 -44 -44 -45 -45 -45 -44 -44 -43 -43 -43
-39 -40 -40 -41 -41 -41 -41 -40 -40 -40 -40 -40 -40 -40 -40 -40 -39 -40 -39 -39 -40 -40 -40 -40 -40 -41 -41 -41 -41 -41 -42 -42 -42 -42 -42 -42 -41 -41 -41 -41 -42 -42 -43 -43 -44 -44 -44 -45 -45 -45 -45 -45 -44 -44 -44 -44 -44 -44 -44 -44 -44 -43 -43
-40 -40 -40 -41 -41 -41 -41 -41 -40 -40 -40 -40 -40 -40 -40 -40 -40 -40 -40 -39 -39 -40 -40 -40 -40 -40 -41 -41 -41 -41 -41 -42 -42 -42 -42 -42 -42 -41 -41 -41 -42 -42 -43 -43 -44 -44 -44 -44 -45 -45 -45 -45 -45 -45 -45 -45 -45 -45 -44 -44 -44 -43 -43
-40 -40 -40 -41 -41 -41 -41 -41 -41 -40 -40 -40 -40 -40 -40 -40 -40 -40 -40 -40 -40 -40 -40 -40 -40 -40 -40 -40 -41 -41 -41 -41 -42 -42 -42 -42 -42 -42 -41 -41 -41 -42 -42 -43 -43 -44 -44 -44 -45 -45 -45 -45 -45 -45 -45 -45 -45 -45 -45 -44 -44 -43 -43
-40 -40 -41 -41 -41 -42 -42 -41 -41 -41 -40 -40 -40 -40 -40 -40 -40 -40 -40 -40 -40 -40 -40 -39 -39 -40 -40 -40 -40 -41 -41 -41 -42 -42 -42 -42 -42 -42 -42 -42 -41 -42 -42 -43 -43 -43 -44 -44 -44 -44 -44 -44 -44 -44 -44 -44 -44 -45 -45 -44 -44 -43 -43
-40 -41 -41 -41 -41 -42 -42 -42 -41 -41 -41 -40 -40 -40 -40 -40 -40 -40 -40 -40 -40 -40 -40 -40 -40 -40 -40 -40 -40 -41 -41 -41 -41 -42 -42 -42 -42 -42 -42 -42 -42 -42 -42 -43 -43 -43 -43 -44 -44 -44 -44 -44 -44 -44 -44 -44 -44 -44 -44 -44 -43 -43 -43
-41 -41 -41 -41 -42 -42 -42 -42 -42 -41 -41 -41 -40 -40 -40 -40 -40 -40 -40 -40 -40 -41 -41 -40 -40 -41 -41 -41 -41 -41 -41 -41 -41 -41 -42 -42 -42 -42 -42 -42 -42 -42 -42 -43 -43 -43 -43 -43 -43 -44 -44 -44 -44 -44 -44 -44 -44 -44 -44 -44 -43 -42 -43
-41 -41 -41 -41 -42 -42 -42 -42 -42 -42 -41 -41 -40 -40 -40 -40 -40 -40 -40 -40 -41 -41 -41 -41 -41 -41 -41 -41 -41 -41 -41 -41 -41 -42 -42 -42 -42 -42 -42 -42 -42 -42 -42 -42 -43 -43 -43 -43 -43 -43 -44 -44 -44 -44 -44 -43 -43 -43 -43 -43 -43 -43 -43
-41 -41 -41 -41 -42 -42 -42 -42 -42 -42 -42 -41 -41 -40 -40 -40 -40 -40 -40 -41 -41 -42 -41 -41 -41 -42 -42 -42 -41 -41 -42 -42 -42 -42 -42 -42 -42 -42 -42 -42 -42 -42 -42 -42 -43 -43 -43 -43 -43 -43 -43 -43 -43 -43 -43 -43 -42 -42 -43 -43 -43 -43 -43
-41 -41 -41 -41 -42 -42 -42 -42 -42 -42 -42 -41 -41 -41 -40 -40 -40 -40 -40 -41 -41 -41 -41 -41 -41 -42 -42 -42 -41 -41 -42 -42 -42 -42 -42 -42 -42 -42 -42 -42 -42 -42 -42 -42 -42 -43 -43 -43 -43 -43 -43 -43 -43 -43 -43 -42 -42 -42 -42 -43 -43 -43 -44
-41 -41 -41 -41 -41 -41 -41 -41 -41 -41 -41 -41 -41 -41 -40 -40 -40 -40 -40 -41 -41 -41 -41 -41 -41 -41 -41 -41 -41 -41 -41 -41 -42 -42 -42 -42 -42 -42 -42 -42 -42 -42 -42 -43 -43 -43 -43 -43 -43 -43 -43 -43 -43 -42 -42 -42 -42 -42 -42 -42 -43 -43 -43
-42 -41 -41 -41 -41 -41 -41 -41 -41 -41 -41 -41 -40 -40 -40 -40 -40 -40 -40 -40 -41 -40 -41 -41 -41 -41 -41 -41 -41 -41 -41 -41 -42 -42 -42 -42 -42 -42 -42 -42 -42 -42 -42 -42 -43 -43 -43 -43 -43 -43 -43 -43 -42 -42 -42 -42 -42 -42 -42 -43 -43 -43 -43
-42 -42 -41 -41 -41 -41 -41 -41 -41 -41 -41 -41 -40 -40 -40 -40 -40 -40 -40 -40 -40 -40 -40 -41 -41 -41 -41 -41 -41 -41 -41 -41 -41 -42 -42 -42 -42 -42 -42 -42 -42 -42 -42 -42 -42 -43 -43 -43 -43 -43 -43 -42 -42 -42 -42 -42 -42 -42 -42 -43 -43 -43 -44
-42 -42 -42 -41 -41 -41 -41 -41 -41 -41 -41 -40 -40 -40 -40 -40 -40 -40 -40 -40 -40 -40 -40 -41 -41 -41 -41 -41 -41 -41 -41 -41 -41 -42 -42 -42 -42 -42 -42 -42 -42 -42 -42 -42 -42 -42 -43 -43 -43 -42 -42 -42 -42 -42 -42 -42 -42 -42 -42 -43 -43 -44 -44
-42 -42 -42 -42 -42 -42 -42 -42 -41 -41 -41 -40 -40 -40 -40 -40 -40 -40 -40 -40 -40 -40 -40 -41 -41 -41 -41 -41 -41 -41 -41 -41 -42 -42 -42 -42 -42 -42 -42 -42 -42 -42 -42 -42 -42 -42 -42 -42 -42 -42 -42 -42 -42 -42 -42 -42 -42 -42 -42 -42 -43 -44 -44
-42 -42 -42 -42 -42 -42 -42 -42 -41 -41 -41 -41 -40 -40 -40 -40 -40 -40 -40 -40 -40 -40 -40 -40 -41 -41 -41 -41 -41 -41 -42 -42 -42 -42 -42 -42 -42 -42 -42 -42 -42 -42 -42 -42 -42 -42 -42 -42 -42 -42 -42 -42 -42 -42 -42 -42 -42 -42 -42 -43 -43 -44 -44
Height
5331 5322 5314 5306 5298 5291 5285 5280 5275 5271 5266 5262 5258 5254 5250 5248 5245 5244 5243 5242 5241 5240 5239 5239 5240 5240 5239 5238 5238 5238 5237 5236 5235 5234 5233 5231 5230 5231 5228 5225 5223 5222 5231 5241 5243 5246 5246 5240 5242 5248 5249 5252 5257 5258 5258 5260 5263 5266 5269 5272 5277 5281 5286
5321 5312 5304 5297 5289 5282 5277 5272 5267 5263 5259 5255 5250 5247 5243 5241 5239 5237 5236 5235 5234 5233 5232 5232 5233 5233 5232 5231 5230 5231 5229 5229 5228 5225 5225 5224 5221 5222 5221 5217 5215 5213 5216 5225 5232 5235 5233 5227 5227 5233 5234 5234 5241 5243 5241 5243 5247 5248 5250 5255 5259 5263 5268
5311 5303 5295 5288 5281 5275 5269 5265 5260 5256 5252 5248 5244 5240 5237 5234 5232 5231 5229 5228 5227 5226 5225 5225 5226 5225 5225 5224 5224 5224 5223 5221 5220 5218 5216 5216 5213 5213 5213 5209 5205 5204 5204 5211 5218 5223 5222 5215 5213 5220 5220 5217 5223 5227 5224 5226 5231 5231 5232 5237 5242 5245 5250
5301 5293 5286 5279 5273 5267 5262 5258 5254 5249 5245 5241 5238 5235 5232 5229 5226 5225 5223 5222 5221 5220 5220 5220 5220 5220 5219 5218 5218 5217 5216 5213 5212 5210 5207 5207 5206 5203 5202 5200 5196 5195 5194 5197 5204 5210 5209 5203 5199 5206 5208 5203 5206 5210 5208 5209 5213 5215 5216 5220 5224 5227 5233
5292 5285 5278 5271 5265 5259 5255 5251 5247 5243 5239 5235 5232 5229 5227 5224 5221 5219 5218 5217 5216 5215 5215 5215 5215 5214 5213 5212 5212 5210 5208 5205 5203 5201 5199 5198 5196 5193 5191 5189 5187 5185 5184 5185 5190 5195 5196 5190 5185 5190 5195 5190 5189 5193 5193 5193 5197 5199 5201 5203 5206 5210 5216
5283 5276 5269 5263 5257 5252 5248 5244 5240 5237 5233 5229 5226 5224 5221 5219 5217 5215 5213 5212 5211 5210 5210 5210 5209 5209 5207 5205 5204 5202 5199 5197 5194 5192 5190 5188 5186 5183 5180 5178 5177 5175 5173 5174 5177 5180 5182 5178 5171 5173 5180 5178 5173 5176 5179 5180 5181 5183 5185 5188 5191 5195 5200
5275 5268 5261 5255 5250 5245 5241 5237 5234 5230 5226 5223 5221 5218 5216 5214 5211 5210 5209 5207 5207 5206 5205 5204 5203 5202 5201 5198 5196 5193 5191 5188 5185 5183 5181 5178 5175 5172 5168 5167 5166 5164 5162 5162 5165 5167 5167 5164 5158 5158 5165 5166 5161 5161 5165 5165 5165 5168 5172 5174 5177 5181 5184
5267 5260 5253 5247 5242 5237 5234 5230 5227 5224 5220 5217 5215 5212 5210 5208 5206 5205 5204 5202 5202 5201 5199 5199 5197 5195 5193 5190 5187 5185 5182 5179 5176 5173 5172 5169 5164 5160 5157 5155 5154 5153 5151 5150 5152 5153 5153 5149 5144 5145 5150 5152 5150 5148 5149 5148 5148 5154 5160 5159 5160 5166 5171
5258 5251 5245 5240 5234 5230 5226 5223 5220 5217 5214 5211 5209 5206 5204 5202 5201 5200 5199 5197 5196 5195 5194 5192 5190 5187 5184 5181 5179 5176 5173 5170 5166 5163 5161 5158 5153 5149 5145 5143 5142 5140 5139 5138 5137 5138 5137 5133 5130 5131 5134 5138 5137 5134 5133 5132 5132 5138 5143 5142 5145 5154 5159
5249 5243 5237 5232 5227 5222 5219 5216 5213 5210 5207 5205 5203 5200 5198 5196 5195 5194 5193 5192 5191 5189 5188 5185 5183 5180 5176 5173 5170 5167 5164 5160 5156 5152 5149 5146 5143 5139 5135 5132 5130 5128 5126 5123 5122 5123 5122 5118 5117 5118 5119 5122 5124 5119 5116 5118 5118 5121 5126 5128 5133 5143 5148
5241 5234 5228 5223 5219 5215 5211 5209 5206 5203 5201 5199 5196 5193 5191 5190 5190 5188 5187 5186 5185 5183 5181 5179 5176 5173 5169 5166 5163 5160 5156 5152 5147 5143 5139 5135 5132 5128 5124 5121 5119 5116 5113 5110 5108 5109 5107 5105 5105 5106 5105 5106 5109 5105 5102 5103 5104 5107 5112 5114 5118 5128 5135
5232 5226 5220 5215 5211 5207 5204 5201 5198 5196 5194 5192 5190 5187 5184 5183 5183 5183 5182 5181 5179 5177 5174 5172 5169 5166 5162 5159 5155 5152 5148 5144 5139 5134 5130 5126 5122 5118 5113 5109 5105 5102 5100 5098 5096 5096 5096 5094 5092 5093 5092 5093 5094 5093 5091 5090 5092 5095 5098 5099 5101 5109 5118
5224 5218 5212 5206 5202 5199 5196 5193 5190 5188 5187 5185 5183 5180 5177 5176 5176 5176 5176 5174 5172 5170 5167 5164 5162 5158 5155 5151 5147 5143 5139 5135 5130 5126 5121 5116 5112 5108 5103 5099 5094 5090 5087 5085 5084 5085 5087 5085 5081 5081 5082 5082 5080 5081 5081 5080 5081 5083 5082 5083 5086 5091 5100
5216 5210 5204 5198 5194 5191 5188 5185 5182 5181 5180 5178 5176 5173 5170 5169 5170 5169 5169 5168 5165 5163 5160 5156 5154 5151 5148 5144 5139 5135 5130 5125 5121 5117 5112 5108 5103 5098 5093 5089 5086 5082 5077 5074 5072 5073 5076 5075 5071 5071 5073 5072 5069 5069 5070 5069 5070 5071 5069 5070 5072 5076 5085
5207 5202 5196 5190 5186 5183 5181 5177 5174 5173 5172 5171 5169 5166 5164 5163 5163 5163 5162 5161 5158 5155 5152 5149 5146 5143 5140 5136 5131 5126 5121 5116 5112 5108 5103 5099 5093 5089 5084 5081 5078 5074 5070 5067 5064 5063 5064 5064 5062 5061 5062 5063 5061 5059 5060 5059 5058 5059 5059 5058 5060 5065 5073
5199 5193 5188 5183 5178 5175 5173 5170 5166 5165 5165 5164 5162 5160 5158 5157 5157 5156 5155 5153 5150 5147 5144 5142 5139 5135 5132 5128 5124 5119 5112 5107 5103 5099 5095 5090 5085 5080 5076 5073 5070 5066 5063 5061 5058 5056 5055 5054 5054 5053 5052 5053 5053 5052 5051 5048 5046 5049 5051 5050 5052 5056 5062
5191 5185 5180 5175 5171 5167 5165 5163 5159 5157 5158 5157 5155 5153 5151 5150 5150 5150 5149 5146 5143 5140 5138 5135 5131 5128 5124 5121 5117 5111 5105 5099 5095 5090 5086 5082 5077 5073 5070 5068 5064 5060 5056 5054 5051 5050 5048 5046 5045 5045 5044 5045 5045 5045 5042 5038 5038 5041 5042 5041 5043 5046 5051
5183 5177 5171 5167 5163 5160 5158 5156 5152 5150 5150 5150 5148 5146 5144 5143 5144 5143 5142 5139 5137 5134 5131 5128 5124 5120 5117 5114 5110 5104 5099 5093 5087 5082 5077 5073 5068 5066 5065 5062 5058 5055 5053 5050 5046 5044 5041 5039 5037 5036 5037 5038 5038 5037 5033 5029 5031 5034 5033 5033 5034 5037 5041
5175 5170 5164 5159 5155 5152 5150 5149 5146 5144 5143 5143 5141 5139 5137 5136 5137 5137 5135 5133 5130 5128 5125 5121 5117 5113 5109 5106 5103 5098 5093 5087 5081 5075 5070 5065 5061 5059 5058 5055 5052 5051 5049 5046 5042 5038 5035 5034 5032 5030 5030 5031 5031 5030 5027 5023 5024 5026 5026 5027 5028 5029 5032
5167 5163 5157 5151 5148 5145 5142 5141 5140 5138 5136 5136 5134 5132 5130 5129 5130 5130 5128 5127 5124 5122 5119 5114 5110 5106 5102 5099 5095 5091 5087 5081 5075 5069 5063 5059 5055 5053 5051 5049 5048 5046 5043 5040 5037 5034 5031 5029 5027 5025 5024 5024 5024 5023 5021 5018 5018 5019 5019 5019 5021 5024 5024
5158 5155 5150 5144 5140 5138 5135 5133 5132 5131 5129 5128 5127 5125 5123 5122 5122 5122 5121 5120 5118 5115 5112 5108 5105 5101 5096 5092 5089 5085 5080 5075 5069 5063 5058 5053 5049 5046 5044 5043 5043 5040 5037 5035 5033 5030 5027 5024 5022 5020 5018 5018 5018 5017 5015 5014 5013 5013 5012 5012 5014 5018 5018
5151 5147 5143 5138 5134 5131 5129 5126 5125 5124 5122 5121 5120 5119 5117 5115 5115 5115 5114 5113 5112 5109 5105 5102 5099 5095 5091 5087 5083 5080 5075 5070 5065 5059 5053 5048 5043 5041 5039 5037 5037 5035 5033 5031 5028 5026 5024 5021 5018 5016 5014 5013 5012 5011 5009 5008 5008 5008 5007 5007 5008 5011 5012
5143 5139 5136 5132 5128 5125 5122 5120 5118 5116 5115 5114 5114 5113 5111 5109 5108 5108 5106 5106 5105 5102 5099 5096 5093 5089 5085 5081 5078 5074 5070 5066 5060 5055 5049 5044 5039 5035 5034 5032 5031 5030 5028 5027 5025 5022 5020 5017 5014 5013 5011 5009 5008 5006 5004 5003 5004 5003 5002 5002 5003 5004 5005
5136 5132 5129 5126 5122 5119 5115 5113 5111 5109 5108 5107 5107 5106 5105 5103 5102 5101 5099 5098 5097 5094 5092 5089 5086 5082 5079 5075 5072 5068 5064 5060 5056 5051 5046 5040 5035 5031 5028 5027 5026 5025 5023 5022 5020 5018 5016 5014 5011 5009 5008 5006 5004 5003 5001 5000 4999 4999 4998 4997 4997 4998 4999
5129 5125 5122 5119 5117 5114 5110 5106 5104 5102 5101 5100 5100 5099 5098 5097 5096 5094 5092 5091 5089 5087 5084 5081 5078 5075 5072 5069 5065 5062 5059 5055 5051 5046 5041 5037 5031 5027 5024 5022 5020 5019 5018 5017 5016 5014 5012 5010 5007 5005 5004 5002 5000 4998 4997 4995 4994 4994 4993 4992 4992 4992 4994
5123 5119 5116 5113 5111 5108 5105 5101 5098 5096 5094 5093 5093 5093 5092 5091 5090 5089 5087 5085 5083 5080 5076 5073 5071 5068 5065 5061 5058 5055 5052 5049 5045 5041 5037 5033 5028 5024 5020 5018 5016 5014 5013 5012 5011 5009 5007 5005 5003 5001 4999 4997 4995 4994 4993 4991 4989 4990 4989 4987 4986 4988 4989
5116 5113 5109 5107 5105 5102 5100 5096 5093 5090 5088 5086 5086 5086 5086 5085 5084 5083 5081 5079 5077 5073 5069 5067 5064 5061 5057 5054 5051 5047 5044 5042 5039 5035 5031 5028 5024 5020 5017 5014 5012 5010 5009 5008 5006 5004 5002 5000 4997 4996 4994 4992 4990 4990 4988 4986 4985 4986 4985 4983 4982 4983 4985
5110 5107 5104 5101 5099 5097 5094 5091 5087 5084 5082 5080 5080 5080 5079 5079 5078 5077 5075 5074 5070 5067 5064 5061 5059 5055 5052 5049 5046 5042 5039 5036 5033 5030 5026 5022 5019 5016 5013 5010 5008 5006 5005 5003 5002 5000 4997 4995 4993 4991 4990 4988 4987 4986 4984 4982 4981 4981 4981 4979 4978 4979 4980
5104 5101 5098 5096 5093 5090 5088 5086 5082 5079 5076 5075 5074 5074 5073 5073 5072 5071 5070 5069 5065 5061 5058 5057 5054 5051 5047 5044 5041 5038 5035 5032 5029 5025 5022 5018 5014 5011 5008 5005 5003 5001 5000 4998 4997 4995 4993 4991 4990 4988 4986 4985 4984 4982 4980 4978 4978 4977 4976 4975 4975 4975 4976
5098 5095 5093 5091 5089 5086 5083 5081 5078 5075 5072 5070 5069 5068 5068 5067 5067 5066 5067 5065 5061 5057 5055 5053 5050 5047 5043 5040 5037 5034 5031 5027 5024 5021 5017 5014 5010 5006 5003 5001 4998 4997 4995 4994 4993 4991 4990 4988 4986 4985 4983 4982 4980 4978 4976 4975 4974 4973 4973 4972 4971 4971 4972
5092 5089 5086 5084 5082 5080 5077 5075 5072 5070 5067 5065 5064 5063 5063 5062 5061 5061 5061 5059 5055 5052 5050 5048 5044 5041 5038 5034 5031 5028 5025 5022 5019 5016 5012 5009 5005 5001 4998 4996 4994 4992 4991 4990 4988 4987 4986 4984 4983 4981 4980 4978 4976 4974 4972 4971 4970 4970 4969 4968 4968 4968 4968
5085 5083 5080 5077 5075 5073 5071 5068 5066 5064 5062 5060 5058 5058 5057 5057 5055 5054 5054 5052 5049 5046 5044 5041 5038 5035 5032 5028 5025 5023 5020 5017 5014 5011 5008 5004 5001 4997 4993 4991 4989 4988 4987 4986 4985 4983 4982 4980 4979 4978 4976 4975 4973 4971 4969 4968 4967 4967 4966 4965 4965 4965 4965
5078 5077 5075 5072 5068 5066 5064 5062 5060 5058 5056 5054 5053 5052 5052 5052 5050 5047 5046 5045 5042 5040 5037 5035 5032 5029 5026 5023 5020 5017 5014 5011 5009 5006 5003 5000 4996 4993 4989 4986 4984 4983 4982 4981 4980 4979 4978 4977 4975 4974 4973 4971 4969 4967 4966 4965 4964 4964 4963 4963 4962 4962 4962
5071 5069 5068 5066 5063 5060 5058 5056 5054 5052 5050 5049 5048 5047 5046 5046 5044 5042 5040 5038 5036 5033 5031 5028 5025 5023 5020 5017 5014 5011 5008 5005 5002 5000 4997 4994 4991 4989 4985 4982 4979 4978 4977 4977 4976 4975 4974 4973 4972 4970 4969 4967 4966 4964 4963 4962 4962 4962 4961 4960 4960 4960 4960
5069 5064 5061 5060 5058 5055 5052 5050 5048 5046 5044 5043 5042 5041 5040 5040 5038 5036 5034 5032 5029 5027 5025 5022 5019 5016 5014 5011 5008 5005 5002 4999 4997 4994 4992 4989 4986 4983 4981 4978 4975 4973 4972 4972 4971 4971 4970 4969 4968 4967 4965 4964 4963 4961 4961 4960 4959 4959 4959 4958 4958 4958 4958
5068 5062 5057 5054 5052 5051 5048 5046 5043 5041 5039 5037 5036 5035 5034 5033 5032 5030 5027 5025 5022 5020 5018 5016 5013 5010 5008 5005 5003 5000 4997 4994 4991 4989 4986 4984 4981 4978 4976 4973 4971 4969 4968 4968 4967 4967 4966 4965 4965 4964 4962 4961 4960 4959 4958 4958 4957 4957 4957 4956 4955 4955 4956
Wind_Speed
87 85 83 80 78 74 68 64 61 59 58 57 56 55 53 52 52 51 51 51 51 52 52 53 53 53 54 56 57 58 59 60 61 63 64 65 67 68 71 74 77 79 78 75 74 76 80 84 86 88 89 91 93 96 100 101 102 103 104 105 107 110 114
86 84 81 78 76 71 65 61 58 57 56 55 53 52 51 50 49 49 48 48 48 49 49 50 49 50 51 52 53 54 55 56 57 60 61 63 66 67 68 71 74 76 76 74 71 71 75 79 81 82 84 86 87 91 96 99 102 104 104 105 105 107 109
85 82 79 76 73 67 62 58 56 55 54 53 51 49 48 47 47 46 46 46 46 46 46 46 45 46 46 47 48 49 51 54 56 59 62 63 65 67 68 71 73 75 76 74 71 69 71 76 78 77 78 81 81 83 88 92 97 101 104 105 106 107 108
84 80 76 74 70 64 59 56 54 53 52 51 49 47 45 45 44 43 43 42 42 41 41 41 40 41 42 44 45 48 51 54 57 60 63 64 66 68 70 72 74 76 77 76 72 70 71 75 76 74 75 78 78 79 82 85 88 93 99 103 106 108 108
83 79 74 72 68 62 56 54 52 51 50 49 48 45 43 42 41 40 39 38 37 37 36 36 37 38 41 44 46 50 53 56 60 62 65 66 68 70 72 74 75 77 77 76 73 70 70 73 76 74 72 75 77 77 78 81 82 85 89 95 100 104 107
81 77 73 70 66 60 55 52 51 50 49 47 46 44 42 40 39 38 37 36 35 35 35 36 38 40 43 46 49 52 56 59 62 64 66 68 69 71 73 74 75 76 76 76 73 71 70 71 74 74 71 72 75 76 76 77 79 81 83 86 91 96 100
80 76 72 69 65 58 53 50 49 48 47 46 44 43 41 40 39 37 36 36 35 36 37 38 40 42 46 49 52 55 58 60 63 65 66 67 69 71 73 74 74 75 76 75 73 71 70 71 74 74 71 70 73 75 74 75 77 78 79 81 84 87 91
79 75 70 67 63 57 52 49 48 47 46 45 44 43 41 40 39 38 37 36 36 37 38 40 42 45 48 51 54 56 59 61 62 64 65 67 69 71 73 74 75 75 75 75 73 71 71 72 74 73 71 70 71 73 74 76 77 77 77 79 81 83 85
78 74 69 66 62 56 50 48 47 47 46 45 43 43 42 41 40 38 37 37 37 38 39 41 44 47 50 52 55 57 59 60 62 64 65 67 70 72 74 75 75 75 74 73 72 70 69 71 72 72 70 69 70 73 74 76 77 78 78 80 81 80 81
77 73 68 65 61 55 50 47 46 46 45 44 43 43 42 41 40 39 38 38 38 39 40 43 45 48 50 53 54 56 58 60 62 64 67 69 71 73 75 76 75 74 72 71 69 67 67 68 69 68 68 67 68 71 74 75 77 79 79 81 81 79 80
76 72 68 64 60 54 49 46 45 45 45 44 43 43 43 42 40 39 39 38 39 39 41 43 46 48 50 52 54 56 58 60 62 65 68 70 72 73 74 74 72 70 69 68 66 64 63 64 64 63 63 63 64 67 71 74 77 79 80 81 82 81 81
74 70 67 63 59 54 49 46 45 45 45 44 43 44 44 43 41 39 38 38 39 40 41 43 46 48 50 52 53 55 57 59 62 65 68 70 71 72 72 70 68 65 62 59 58 56 55 56 58 58 57 58 59 62 66 70 72 74 76 79 82 83 83
73 69 66 63 58 53 49 46 45 45 45 44 43 44 45 44 42 40 39 38 40 41 42 44 46 48 50 51 53 55 57 59 62 65 67 69 70 69 67 65 61 58 54 52 51 50 48 50 53 54 53 54 56 57 60 62 64 67 71 75 78 81 82
71 67 64 62 58 53 48 46 45 45 44 44 43 44 46 45 43 41 40 40 40 41 43 45 46 48 49 51 53 55 57 60 62 64 66 68 67 65 61 57 53 50 50 50 51 49 47 47 50 51 50 51 54 56 56 58 59 62 66 70 74 77 78
69 66 63 61 57 52 47 46 45 45 44 44 43 44 45 45 44 42 41 40 41 42 44 45 46 48 49 50 52 54 57 60 61 63 65 65 63 59 54 50 47 46 47 49 50 49 47 46 47 48 48 49 51 54 55 56 57 59 61 65 68 70 71
68 64 61 59 56 51 47 45 45 45 44 43 43 44 45 45 44 42 41 41 42 43 44 45 46 47 48 50 51 53 56 59 61 62 63 62 59 55 49 45 44 45 45 45 46 46 46 46 46 46 47 47 48 49 52 55 57 57 57 60 62 63 64
66 63 60 58 54 50 46 44 45 45 44 43 43 44 45 45 44 42 41 41 42 43 43 44 46 47 48 49 50 52 56 58 60 62 61 59 55 50 44 40 39 40 41 43 44 44 44 45 45 45 45 45 45 46 49 53 55 55 55 57 58 58 58
64 61 59 56 53 49 45 43 44 45 44 43 43 44 46 46 44 42 41 41 42 42 43 44 45 47 48 48 49 51 54 56 58 60 60 57 52 46 39 36 36 37 37 38 40 41 42 42 43 43 43 41 41 43 47 51 52 52 53 55 56 56 55
63 59 57 54 51 48 45 42 42 43 43 42 43 44 46 46 44 41 41 41 41 41 42 43 44 46 48 48 48 50 52 54 56 58 58 56 51 44 38 35 35 33 32 33 35 38 40 40 40 40 39 38 37 38 42 47 48 48 50 52 52 53 52
61 57 54 52 50 46 44 42 41 41 42 42 43 44 46 46 44 42 41 40 40 40 41 42 44 45 46 47 48 49 50 52 54 57 56 54 50 44 38 34 31 30 30 31 32 34 36 36 36 36 36 34 33 34 37 41 43 44 46 48 48 48 49
59 56 52 50 48 45 44 42 40 40 41 42 42 44 45 46 44 42 41 40 39 39 40 41 42 44 45 46 47 48 48 49 52 54 54 53 49 44 38 32 28 28 29 30 30 31 32 33 33 33 33 32 30 31 34 36 38 40 43 45 45 44 45
57 54 50 47 46 44 43 41 39 39 40 41 42 43 44 45 44 42 41 39 38 39 40 40 41 42 44 45 46 46 46 47 49 51 52 51 49 45 39 33 29 27 27 28 29 29 29 30 31 31 31 31 30 30 31 33 33 35 38 41 42 42 42
55 52 48 45 44 43 42 41 39 39 39 40 41 42 43 44 44 42 41 40 38 39 39 40 40 41 43 44 44 44 45 45 47 48 49 49 48 46 40 35 31 29 27 26 27 27 28 28 30 30 30 30 30 31 32 33 33 33 35 36 36 37 39
53 50 46 44 42 41 42 41 39 38 39 40 41 41 42 43 42 42 41 40 39 39 40 40 40 40 42 43 44 44 44 44 45 46 47 46 46 45 42 38 33 30 28 26 26 26 26 27 29 29 29 29 30 31 32 34 34 35 36 37 36 35 34
51 48 45 42 40 40 40 41 40 38 39 39 40 40 41 41 41 41 40 40 40 40 41 40 40 40 41 43 44 44 43 43 43 44 45 44 43 43 42 40 36 32 30 28 27 26 25 26 28 28 28 29 30 31 33 35 36 36 38 39 37 34 31
49 46 43 41 39 38 39 40 40 39 39 39 39 40 40 40 40 40 40 39 39 40 41 41 41 41 42 43 44 44 44 44 43 43 43 43 41 40 40 40 38 35 32 30 29 27 26 26 27 28 28 29 30 32 35 37 37 38 39 39 36 32 28
48 45 42 40 38 37 38 38 39 39 39 39 39 39 40 40 39 38 38 38 38 40 42 42 41 42 43 44 45 45 45 45 45 44 44 43 40 38 37 38 37 36 33 31 29 28 27 28 28 28 29 30 32 33 35 37 37 36 36 37 34 29 26
46 43 41 39 37 37 37 37 38 38 38 38 39 39 39 39 39 38 37 37 38 40 42 41 41 42 43 44 44 45 45 45 45 44 44 44 42 38 36 35 35 34 32 30 28 28 28 28 29 29 30 32 33 34 35 35 34 32 32 32 31 28 26
45 43 41 38 37 37 36 35 36 37 38 39 39 39 39 39 38 37 36 35 37 40 41 40 40 41 42 42 43 43 43 44 44 43 43 43 42 40 37 35 34 33 32 29 28 27 28 28 28 29 30 32 33 33 33 32 30 28 27 28 27 26 25
45 42 40 37 35 35 35 33 33 34 36 38 39 39 39 38 38 36 34 33 36 39 39 39 39 39 41 41 41 42 42 42 43 43 42 42 42 41 37 35 34 33 31 29 28 27 27 28 28 28 30 31 31 30 29 27 26 25 24 24 25 25 24
45 42 40 38 36 34 34 33 32 32 33 34 36 37 37 37 37 36 33 33 36 38 37 38 38 39 40 41 41 41 42 42 42 42 42 42 41 41 39 35 33 32 30 29 28 27 27 27 27 28 29 29 27 25 25 25 24 23 23 22 23 23 23
45 43 41 39 38 36 34 33 32 31 32 32 34 35 35 36 37 36 34 34 36 37 37 38 38 39 40 41 41 41 41 41 41 41 41 41 40 40 40 37 33 31 30 28 27 26 26 27 27 27 27 27 24 23 23 24 23 22 21 20 19 20 20
46 44 41 40 39 38 35 33 32 31 31 31 32 33 34 34 35 36 36 35 36 37 38 38 39 39 40 40 41 41 41 41 41 41 40 40 40 39 39 38 35 32 30 28 26 25 26 26 26 26 25 24 22 21 22 23 22 21 19 18 17 17 18
48 46 43 41 40 39 37 34 33 31 31 31 31 32 32 32 33 35 35 35 36 37 38 39 39 40 41 41 41 42 42 41 41 41 40 40 40 39 38 38 35 33 30 28 26 25 25 25 25 25 24 22 21 21 21 22 22 20 18 16 16 17 18
45 46 45 43 40 39 37 35 33 32 32 32 32 32 32 32 33 35 35 36 37 38 38 39 40 41 41 41 41 42 42 41 41 41 41 40 40 39 38 37 35 33 31 28 26 24 24 24 24 23 23 21 20 20 21 21 22 21 18 16 15 16 18
41 43 44 44 41 38 35 34 33 32 32 32 32 33 33 33 34 35 36 37 38 39 39 40 41 42 42 42 41 41 41 41 41 41 41 41 40 39 38 37 35 33 31 29 26 24 23 23 23 22 21 20 20 19 20 20 21 21 19 16 15 15 17
Wind_Direction
319 318 316 314 313 311 306 303 302 302 301 301 298 295 292 288 286 284 282 280 279 277 275 274 273 273 272 271 271 271 271 271 271 271 271 271 271 270 271 270 270 270 267 265 264 263 261 260 259 257 255 253 251 250 249 249 248 248 247 247 246 245 245
319 318 316 315 314 310 305 303 302 302 302 301 299 296 293 290 288 285 284 282 280 278 276 275 274 273 272 272 271 271 272 272 272 272 272 272 272 272 272 272 272 272 270 268 267 265 264 263 262 260 259 257 254 252 251 249 248 247 247 247 246 245 245
320 318 316 315 313 309 304 302 302 302 302 300 298 296 294 292 289 287 285 283 281 279 278 277 275 274 273 273 273 274 274 274 274 274 274 273 274 274 273 274 273 273 272 271 269 267 266 265 265 263 261 260 258 255 253 251 249 248 247 246 246 245 245
320 319 316 315 313 308 302 301 301 302 301 300 298 297 295 293 291 289 287 284 282 281 279 278 277 276 276 276 276 276 276 276 276 276 276 276 276 276 275 275 275 275 274 273 272 270 268 267 266 264 262 262 260 257 255 253 250 249 247 246 245 245 244
320 318 316 314 312 306 301 300 301 301 300 299 298 298 296 294 292 290 288 287 285 283 281 280 280 279 279 279 279 279 279 278 278 278 278 278 278 278 277 277 277 277 276 276 274 272 270 269 268 265 263 262 261 258 256 255 252 250 248 247 246 244 244
320 318 316 314 311 305 300 298 300 300 299 298 297 297 296 294 292 290 289 288 287 285 284 283 282 282 282 282 281 281 280 280 280 280 280 280 280 279 279 279 278 278 277 277 276 274 272 270 269 267 264 263 262 259 257 255 254 252 249 247 246 245 244
319 318 315 313 311 305 298 297 298 298 298 297 296 296 294 293 291 290 290 288 287 286 286 285 285 285 284 283 282 282 281 281 281 281 282 282 282 281 281 280 279 279 278 278 277 275 273 271 269 268 265 263 262 260 258 256 253 252 251 249 247 245 244
319 317 315 313 310 304 297 295 296 296 296 295 295 294 293 292 291 290 289 289 288 288 288 288 287 286 285 284 283 283 283 283 283 283 284 284 283 282 282 282 281 280 280 279 278 276 274 271 269 267 265 262 261 260 258 256 253 251 249 249 247 245 244
319 317 314 312 309 303 295 292 293 294 294 293 293 292 291 291 291 290 290 290 290 290 290 289 288 287 286 285 285 285 285 285 286 286 286 285 285 284 284 284 284 283 283 281 279 277 274 271 269 267 265 262 260 259 257 256 254 251 248 247 246 245 245
318 316 314 312 309 303 294 290 290 291 292 291 291 290 290 290 290 291 291 292 292 292 291 290 289 288 287 287 287 287 288 288 288 288 288 287 287 287 287 287 287 287 286 283 280 277 273 270 268 268 266 263 260 259 258 256 254 252 249 247 246 244 244
317 315 313 311 309 302 294 288 287 289 289 289 289 289 288 288 289 291 292 293 293 293 292 290 289 288 287 287 288 289 289 290 289 289 289 289 290 290 290 290 290 288 286 284 281 278 274 271 268 267 266 263 260 259 258 256 254 253 251 250 247 244 242
317 315 313 311 308 302 294 287 284 286 287 287 287 287 288 289 290 291 293 294 294 293 291 290 288 288 288 289 290 290 290 290 290 290 291 292 293 294 294 294 293 290 286 283 280 277 275 273 271 268 267 265 262 259 258 257 256 255 253 251 249 246 242
316 314 312 310 308 302 294 286 282 283 285 286 286 287 287 289 291 293 294 295 294 293 292 290 290 290 291 292 292 292 292 291 292 293 294 296 297 298 298 296 295 293 289 285 280 276 273 273 273 270 269 268 265 261 259 258 257 256 254 252 250 247 244
315 313 311 309 307 302 295 287 281 281 283 285 285 286 287 289 292 293 294 295 294 293 292 292 292 293 294 294 295 294 294 294 295 296 298 300 301 301 300 298 297 295 293 289 285 281 278 276 274 272 269 268 267 263 260 258 257 255 254 253 251 248 245
315 313 310 309 306 302 295 287 281 279 281 283 284 285 287 289 291 293 295 296 295 294 294 294 294 295 296 296 297 297 296 296 298 300 302 304 304 303 301 299 298 296 293 290 288 286 283 279 276 273 270 266 265 264 263 260 257 254 253 253 252 250 247
314 312 310 308 305 301 295 288 281 278 279 282 283 284 286 288 291 293 296 296 296 295 295 295 296 297 297 298 299 299 298 299 301 304 305 306 305 303 301 301 301 298 294 290 288 286 283 280 277 274 271 267 264 262 261 261 259 256 254 254 253 252 250
314 312 309 307 305 300 295 288 281 277 278 280 282 283 285 288 291 294 296 296 296 296 296 297 297 297 298 300 301 301 300 302 304 306 308 308 306 303 304 306 302 296 291 289 288 286 284 281 278 275 272 270 266 262 259 257 256 256 255 254 253 250 249
313 311 309 306 304 299 294 288 281 276 277 279 281 283 285 288 291 294 295 296 296 297 298 298 298 298 300 302 303 302 303 304 306 308 310 309 307 307 309 306 296 290 289 289 288 286 284 281 279 277 275 273 269 265 261 258 256 254 254 255 255 253 250
313 312 309 306 303 299 295 289 281 276 275 277 279 281 284 287 291 294 295 295 296 297 298 299 299 299 301 303 303 304 305 306 307 309 311 310 309 310 308 301 296 294 292 288 285 284 283 282 282 281 279 277 272 267 263 262 260 256 254 254 255 256 256
313 312 309 305 302 299 295 290 282 276 274 275 277 280 284 287 291 293 294 295 296 298 298 299 300 301 302 303 304 305 307 308 309 311 313 312 310 309 306 303 301 298 292 287 285 284 284 285 284 283 281 278 273 267 263 261 261 259 257 255 254 254 256
313 312 309 305 302 299 296 292 285 277 274 274 276 279 283 287 290 292 293 295 297 298 299 299 301 302 303 303 305 307 309 309 310 312 314 312 310 308 308 306 302 296 292 291 289 285 284 285 285 284 284 282 276 269 263 260 259 258 258 258 256 254 253
313 312 309 305 302 299 296 293 287 278 274 273 275 278 282 286 290 292 293 295 297 298 299 300 302 302 303 303 306 308 309 310 311 313 314 312 309 308 309 307 302 297 294 293 289 286 283 283 282 283 283 283 282 277 272 268 265 262 260 259 258 256 253
314 312 309 305 302 300 298 295 289 280 274 273 274 277 281 285 289 292 294 296 298 299 300 301 302 302 303 305 307 308 309 310 312 313 314 312 309 307 307 306 303 299 296 294 290 286 282 280 280 280 280 279 279 278 277 276 274 272 270 267 264 260 255
314 312 309 306 303 301 299 297 291 284 276 273 274 276 280 285 289 292 295 298 300 300 300 301 302 304 305 307 308 309 310 311 312 313 314 313 309 305 305 304 303 301 299 296 291 285 281 278 277 277 276 275 276 277 277 277 276 274 274 273 271 267 261
314 312 310 306 304 303 301 298 294 287 280 275 274 276 280 285 289 292 296 298 300 301 301 302 304 306 307 308 308 309 310 312 312 313 315 314 310 304 302 301 301 300 300 298 293 288 283 278 276 276 276 278 281 283 283 282 279 276 274 274 273 273 269
315 313 310 307 305 304 302 299 295 290 283 278 276 277 280 285 289 292 295 297 300 302 303 305 307 308 308 308 309 311 312 312 313 314 315 315 312 305 299 298 299 299 299 298 294 290 288 284 282 282 285 287 288 288 285 282 279 276 275 276 277 276 273
315 313 310 308 306 304 302 299 295 290 285 280 277 277 280 284 288 291 293 298 302 303 303 306 308 308 308 309 310 311 312 312 313 314 314 315 314 307 298 294 293 294 295 295 293 291 290 289 288 289 290 290 288 286 282 278 277 275 274 275 277 277 274
315 313 310 309 307 305 303 299 295 291 286 281 278 277 279 283 288 291 295 300 302 301 302 306 308 307 306 307 308 309 310 310 311 313 314 315 315 311 302 294 290 291 291 291 291 290 289 289 290 290 289 287 285 282 278 276 275 275 273 273 274 274 270
315 313 311 310 309 306 303 300 295 291 286 282 279 278 280 283 288 291 295 299 298 296 298 303 304 303 302 303 304 305 306 307 308 310 311 313 314 313 307 298 292 291 291 291 289 287 287 287 287 286 285 283 280 277 274 274 275 275 273 271 270 269 265
315 313 311 310 308 305 302 298 292 286 282 279 277 277 278 281 284 287 291 292 290 291 296 300 301 301 301 302 302 303 304 305 306 308 310 311 312 313 309 300 293 290 290 289 287 285 284 284 283 282 281 278 275 273 273 275 276 276 273 270 268 266 262
315 315 313 312 310 306 303 299 293 286 280 276 274 274 276 279 282 286 288 289 289 293 297 300 301 302 302 302 303 303 304 305 306 307 308 310 311 312 310 303 294 288 287 286 284 283 282 281 281 280 278 275 274 274 275 278 279 278 275 271 268 265 261
315 315 315 314 312 310 307 303 297 291 285 279 276 275 277 281 284 287 289 290 292 295 299 300 302 303 303 303 304 303 303 304 305 306 307 308 309 310 310 306 296 288 285 283 280 279 279 279 279 277 275 274 275 277 279 280 281 279 275 270 267 264 261
314 315 316 315 313 312 310 305 299 294 288 283 279 278 279 281 285 287 290 292 294 297 299 301 303 304 304 304 304 303 303 303 304 305 306 307 308 309 309 306 299 289 284 281 278 276 277 277 277 276 275 276 277 279 279 280 279 276 271 268 267 266 263
314 315 316 316 315 314 312 308 302 297 292 287 283 281 281 282 285 287 290 293 295 298 300 302 303 304 304 305 304 303 303 303 304 304 305 305 306 307 307 305 299 290 283 280 277 275 275 276 276 276 276 277 279 279 278 277 275 271 266 265 267 269 267
313 314 315 315 315 314 312 309 305 300 296 291 288 286 286 287 289 291 294 296 297 299 301 302 304 304 304 304 303 302 302 302 302 303 303 304 305 306 306 304 299 290 282 279 276 274 273 274 274 274 276 278 279 279 277 275 273 269 265 263 263 266 267
314 313 314 314 314 314 311 308 304 301 297 294 292 290 290 291 292 294 296 298 299 300 302 303 304 304 304 304 303 301 300 300 301 301 302 302 303 304 305 304 298 289 280 276 273 271 270 271 271 272 274 277 279 279 276 274 273 269 264 260 260 262 264